Location: Unnamed
(48.8836°N, 1.0859°W)
Time: 14:42:54
(UTC+02:00)

ISS - Pass Details

Date: 03 October 2021
Orbit: 417 x 423 km, 51.6° (Epoch: 16 October)

Event Time Altitude Azimuth Distance (km) Brightness Sun altitude
Rises 20:15:04 0° 290° (WNW) 2,366 1.7 -6.8°
Reaches altitude 10° 20:17:10 10° 288° (WNW) 1,500 0.5 -7.1°
Maximum altitude 20:20:31 70° 205° (SSW) 448 -3.5 -7.7°
Drops below altitude 10° 20:23:52 10° 121° (ESE) 1,497 -1.5 -8.2°
Enters shadow 20:24:06 - 121° (ESE) 1,595 -1.4 -8.3°
